COSMOS 2150

Satellite information

Favourite Embed

Satellite Type and Status

PAYLOADIN ORBIT

Key statistics

Satellite COSMOS 2150 at a glance.

Uptime

12550

Days in orbit

Revolutions

≈ 14.3

Per day

Orbit

LEO

Low Earth Orbit

Inclination

74.0

Latest

Satellite identification and parameters

Extended collection of information and parameters for COSMOS 2150.

Object identification

Identified? True

Debris? False

Object name: COSMOS 2150

International designator: 1991-041A

Object number (NORAD): 21418

Object ID (CCSDS): 21418

Country: COMMONWEALTH OF INDEPENDENT STATES (CIS)

Current information (Y/N): Y

RCS size: LARGE

Orbital parameters

Period: 100.52 minutes

Inclination: 74.037 deg

SMA: 7161.349 km

Apoapsis: 794.856 km

Periapsis: 771.572 km

RAAN: 191.0756 deg

Eccentricy: 0.00162569

Argument of periapsis: 35.0981 deg

Mean anomaly: 325.1237 deg

Mean motion: 14.32552393 rev/day

Mean motion (dot): 0.00000277 rev/day2

B* drag term: 0.00011165628 1/REarth

Two-line elements (TLE)

Creation date: Oct. 20, 2025, 2:10 a.m.

Reference frame: TEME

Reference center: EARTH

Epoch: Oct. 19, 2025, 9:36 p.m. UTC

TLE line 0: 0 COSMOS 2150

TLE line 1: 1 21418U 91041A 25292.90031819 .00000277 00000-0 11166-3 0 9996

TLE line 2: 2 21418 74.0370 191.0756 0016257 35.0981 325.1237 14.32552393794577

Live tracking on map

Real-time ground track for satellite COSMOS 2150.

In-orbit conjunctions

A list of the most updated potential collisions computed for object COSMOS 2150.

Target Orbit TCA Probability of collision Miss distance Type
THOR ABLESTAR DEB LEO 2025-10-05 01:45:35 0.0003599342 107.0 (m) DEBRIS
CZ-6A DEB LEO 2025-03-05 10:46:59 0.0002430407 909.0 (m) DEBRIS
DMSP 5D-2 F13 DEB SSO 2025-02-18 13:01:23 0.0001230035 595.0 (m) DEBRIS
FENGYUN 1C DEB SSO 2025-02-01 12:11:22 0.0002138876 459.0 (m) DEBRIS
CZ-6A DEB LEO 2024-12-27 11:08:15 0.003406132 243.0 (m) DEBRIS

Associated space launch

Military communications satellite

COSMOS 2150 was lifted into orbit during the mission ‘Kosmos-3M | Strela-2M 49’, on board a Kosmos-3M space rocket.

The launch took place on June 11, 1991, 5:41 a.m. from 133/3 (133L).

For more information about the launch, click the button.

Launch to space Kosmos-3M | Strela-2M 49
Kosmos-3M | Strela-2M 49

Agency: N/A

Status: Launch Successful

Launch date: June 11, 1991, 5:41 a.m. UTC

Rocket: Kosmos-3M

Launch pad: 133/3 (133L)

Location: Plesetsk Cosmodrome, Russian Federation

...

Latest news about this satellite

There are no fresh news available about this satellite. Check back as we update our databases every day.


Newsletter sign-up

Weekly statistics, charts and insights to help you stay on top of the space industry.